Regional Weather Roundup
Issued by NWS Goodland, KS

Home | Current Version | Previous Version | Graphics & Text | Print | Product List | Glossary On
Versions: 1 2 3 4 5 6 7 8 9 10 11 12 13 14 15 16 17 18 19 20 21 22 23 24 25 26 27 28 29 30 31 32 33 34 35 36 37 38 39 40 41 42 43 44 45 46 47 48 49 50
000
ASUS43 KGLD 251708
RWRGLD

GOODLAND FORECAST AREA HOURLY WEATHER ROUNDUP
NATIONAL WEATHER SERVICE GOODLAND KS
1100 AM MDT WED MAY 25 2016

...OFFICIAL OBSERVATIONS...

CITY           SKY/WX    TMP DP  RH WIND       PRES   REMARKS
GOODLAND KS    CLOUDY    64  55  72 CALM      29.94R
HILL CITY KS   CLOUDY    65  59  81 E10       29.88F
IMPERIAL NEB   MOSUNNY   68  55  63 S5        29.94R
MCCOOK NEB     SUNNY     74  57  55 VRB3      29.89S
AKRON CO       PTSUNNY   63  52  67 CALM      30.00R
BURLINGTON CO  CLOUDY    64  54  69 N6        29.97S
LIMON CO       SUNNY     64  50  60 VRB5      30.02S
$$

...UNOFFICIAL OBSERVATIONS...

CITY           SKY/WX    TMP DP  RH WIND       PRES   REMARKS
LENORA KS        N/A     65  32  29 MISG        N/A
$$



USA.gov is the U.S. government's official web portal to all federal, state and local government web resources and services.